[[[{"header":{"parameterUnit":"kt","parameterCategory":2,"dx":1,"dy":1,"la1":30.253999710083008,"la2":30.299108505249023,"lo1":-89.0895004272461,"lo2":-89.04439544677734,"nx":28,"ny":28,"refTime":"2022-09-25T21:00:00:Z","depth":0,"parameterNumber":1,"parameterNumberName":"U-component_of_WINDS"},"data":[-0.2556,-0.2522,-0.2475,-0.2414,-0.2361,-0.2311,-0.2278,-0.223,-0.2179,-0.2113,-0.2067,-0.2015,-0.1944,-0.1877,-0.1823,-0.18,-0.1781,-0.1804,-0.1774,-0.1714,-0.1702,-0.1691,-0.1696,-0.1801,-0.1801,-0.1842,-0.1843,-0.1843,-0.252,-0.2468,-0.2422,-0.2345,-0.2304,-0.2254,-0.2188,-0.2158,-0.2114,-0.2051,-0.2002,-0.1939,-0.1883,-0.1802,-0.1739,-0.1721,-0.1693,-0.1708,-0.1708,-0.1697,-0.1632,-0.1638,-0.1732,-0.1732,-0.1732,-0.1732,-0.1732,-0.1732,-0.244,-0.2422,-0.2347,-0.2296,-0.2244,-0.2192,-0.2165,-0.2101,-0.2054,-0.1984,-0.1935,-0.1883,-0.181,-0.1709,-0.1663,-0.1621,-0.1595,-0.1595,-0.1595,-0.1596,-0.1605,-0.1553,-0.1607,-0.1607,-0.1607,-0.1606,-0.1606,0,-0.2367,-0.2329,-0.228,-0.2218,-0.2178,-0.2124,-0.2067,-0.2049,-0.1948,-0.1914,-0.1859,-0.1819,-0.1739,-0.1681,-0.1611,-0.1561,-0.1503,-0.1491,-0.1491,-0.1514,-0.1545,-0.1529,-0.1424,-0.1489,-0.1488,-0.1487,-0.1487,-0.1486,-0.2283,-0.2267,-0.2164,-0.2137,-0.2093,-0.2049,-0.2013,-0.1925,-0.1891,-0.1806,-0.1793,-0.1734,-0.1681,-0.16,-0.1523,-0.1463,-0.1433,-0.1464,-0.1423,-0.1448,-0.1433,-0.1435,-0.1433,-0.1473,-0.1475,-0.1476,-0.1477,0,-0.2241,-0.2161,-0.2119,-0.2018,-0.1992,-0.1979,-0.1891,-0.1868,-0.1807,-0.1766,-0.1751,-0.1654,-0.1601,-0.1518,-0.1439,-0.1397,-0.1373,-0.1346,-0.1399,-0.1389,-0.1408,-0.1407,-0.1482,-0.1488,-0.1379,-0.138,-0.1381,0,-0.2138,-0.2118,-0.2,-0.198,-0.1955,-0.1867,-0.1845,-0.1789,-0.1723,-0.169,-0.1611,-0.1581,-0.1478,-0.1436,-0.1374,-0.1339,-0.1324,-0.129,-0.1273,-0.1296,-0.1301,-0.1275,-0.127,-0.1236,-0.1236,-0.1236,-0.1235,0,-0.2079,-0.1992,-0.1958,-0.1925,-0.1814,-0.18,-0.1753,-0.1678,-0.1642,-0.1583,-0.1559,-0.1496,-0.1461,-0.1413,-0.1334,-0.131,-0.1289,-0.1239,-0.1254,-0.1256,-0.1252,-0.1254,-0.1343,-0.1235,-0.1235,-0.1235,-0.1235,0,-0.1982,-0.1925,-0.1888,-0.1793,-0.1773,-0.1751,-0.1683,-0.1644,-0.157,-0.1529,-0.1481,-0.1417,-0.1379,-0.1336,-0.1283,-0.1274,-0.1244,-0.1207,-0.1207,-0.1197,-0.1151,-0.1212,-0.1306,-0.1312,-0.1191,-0.119,-0.119,0,-0.1937,-0.1877,-0.18,-0.1766,-0.1727,-0.164,-0.1612,-0.1549,-0.1492,-0.1449,-0.1386,-0.1337,-0.1287,-0.126,-0.1245,-0.1177,-0.1188,-0.1173,-0.1112,-0.1111,-0.1135,-0.122,-0.1254,-0.1295,-0.1184,-0.1185,-0.1185,0,-0.1891,-0.1755,-0.1755,-0.1713,-0.1615,-0.158,-0.155,-0.1482,-0.1458,-0.1395,-0.1366,-0.1296,-0.1255,-0.1211,-0.1151,-0.114,-0.1178,-0.1097,-0.1093,-0.1115,-0.1174,-0.1207,-0.1214,-0.114,-0.1141,-0.1141,-0.118,0,-0.1764,-0.1722,-0.1717,-0.1627,-0.1588,-0.1561,-0.1471,-0.1441,-0.1388,-0.1327,-0.1283,-0.1207,-0.1137,-0.1122,-0.1069,-0.1069,-0.1055,-0.1012,-0.0963,-0.1019,-0.103,-0.1034,-0.0955,-0.0953,-0.0951,-0.095,0,0,-0.174,-0.1679,-0.1593,-0.1559,-0.1521,-0.1429,-0.1408,-0.1359,-0.1263,-0.1238,-0.121,-0.11,-0.1039,-0.0994,-0.1004,-0.0976,-0.0967,-0.095,-0.0993,-0.0998,-0.1003,-0.1016,-0.1022,-0.0947,-0.0946,-0.0945,-0.0945,0,-0.1674,-0.1615,-0.1596,-0.1542,-0.1459,-0.1395,-0.1391,-0.1291,-0.1251,-0.1206,-0.113,-0.1092,-0.1006,-0.0951,-0.0912,-0.0954,-0.0897,-0.0939,-0.0993,-0.0979,-0.0987,-0.0993,-0.1008,-0.1015,-0.0941,-0.0941,-0.0941,0,-0.1613,-0.154,-0.1521,-0.1428,-0.1372,-0.1332,-0.1259,-0.1221,-0.119,-0.1089,-0.1046,-0.0991,-0.091,-0.0879,-0.0862,-0.0835,-0.0839,-0.0821,-0.0829,-0.0825,-0.0807,-0.0817,-0.0825,-0.0717,-0.0717,-0.0717,0,0,-0.1568,-0.1529,-0.1421,-0.1407,-0.1377,-0.1282,-0.1251,-0.1194,-0.1124,-0.1096,-0.1023,-0.0957,-0.0905,-0.0873,-0.082,-0.0799,-0.0774,-0.0798,-0.0808,-0.0817,-0.0818,-0.0803,-0.0812,-0.0715,-0.0715,-0.0715,0,0,-0.1546,-0.1421,-0.138,-0.1351,-0.1288,-0.118,-0.1174,-0.112,-0.1063,-0.1055,-0.0956,-0.0934,-0.0903,-0.0851,-0.0842,-0.08,-0.0753,-0.0754,-0.0835,-0.0847,-0.0857,-0.087,-0.0755,0,0,0,0,0,-0.1432,-0.1437,-0.1401,-0.1382,-0.1263,-0.12,-0.1184,-0.1103,-0.1072,-0.1069,-0.1,-0.0941,-0.0826,-0.0816,-0.0798,-0.0809,-0.0696,-0.0699,-0.0703,-0.0802,-0.0816,-0.0827,0,0,0,0,0,0,-0.1424,-0.1401,-0.14,-0.1294,-0.1267,-0.1199,-0.1129,-0.1107,-0.107,-0.106,-0.0957,-0.0938,-0.0867,-0.0819,-0.0804,-0.0816,-0.0759,-0.0697,-0.07,-0.0703,-0.0807,-0.0818,-0.0827,0,0,0,0,0,-0.1417,-0.1399,-0.1229,-0.1293,-0.1269,-0.1163,-0.1128,-0.1109,-0.1079,-0.0971,-0.0951,-0.1021,-0.0869,-0.0851,-0.081,-0.0825,-0.0769,-0.0764,-0.0699,-0.0701,-0.0704,-0.0812,0,0,0,0,0,0,-0.1412,-0.138,-0.1222,-0.1212,-0.1285,-0.1165,-0.1143,-0.1111,-0.0991,-0.0971,-0.1031,-0.1024,-0.0871,-0.0857,-0.0843,-0.0833,-0.0776,-0.0771,-0.0768,-0.0701,-0.0703,-0.0704,0,0,0,0,0,0,-0.1389,-0.1372,-0.1217,-0.1211,-0.1199,-0.1167,-0.1148,-0.11,-0.0991,-0.1057,-0.1047,-0.1029,-0.089,-0.0861,-0.085,-0.0779,-0.0782,-0.0777,-0.0774,-0.0772,-0.0702,-0.0704,0,0,0,0,0,0,-0.1381,-0.1366,-0.1213,-0.1204,-0.1193,-0.107,-0.1123,-0.1005,-0.0988,-0.1064,-0.0984,-0.0982,-0.0896,-0.0883,-0.0855,-0.0789,-0.0781,-0.0782,-0.0779,-0.0776,-0.0775,0,0,0,0,0,0,0,-0.1374,-0.1492,-0.1284,-0.1198,-0.1189,-0.1116,-0.1113,-0.111,-0.0987,-0.0986,-0.0984,-0.0982,-0.081,-0.0805,-0.08,-0.0797,0,0,-0.0783,-0.078,0,0,0,0,0,0,0,0,-0.1497,-0.1493,-0.1284,-0.1282,-0.128,-0.1115,-0.1113,-0.111,-0.0987,-0.0986,-0.0984,-0.0983,-0.0809,-0.0805,-0.08,0,0,0,0,0,0,0,0,0,0,0,0,0,0,0,-0.1284,-0.1282,0,-0.1115,-0.1113,-0.1111,-0.0987,-0.0986,-0.0985,-0.0984,-0.0808,-0.0804,-0.08,0,0,0,0,0,0,0,0,0,0,0,0,0,0,0,0,0,0,0,0,0,0,0,0,0,0,0,0,0,0,0,0,0,0,0,0,0,0,0,0,0,0,0,0,0,0,0,0,0,0,0,0,0,0,0,0,0,0,0,0,0,0,0,0,0,0,0,0,0]}],[{"header":{"parameterUnit":"kt","parameterCategory":2,"dx":1,"dy":1,"la1":30.253999710083008,"la2":30.299108505249023,"lo1":-89.0895004272461,"lo2":-89.04439544677734,"nx":28,"ny":28,"refTime":"2022-09-25T21:00:00:Z","depth":0,"parameterNumber":2,"parameterNumberName":"V-component_of_WINDS"},"data":[0.1796,0.1816,0.1818,0.1842,0.1848,0.1864,0.1871,0.1879,0.1886,0.1905,0.1916,0.1921,0.1929,0.1942,0.1954,0.1956,0.196,0.1963,0.1964,0.1947,0.1945,0.1943,0.1938,0.1964,0.1964,0.198,0.1981,0.1981,0.1775,0.1782,0.1796,0.1812,0.1824,0.1821,0.1833,0.1843,0.1857,0.1868,0.188,0.1897,0.1911,0.1919,0.1933,0.194,0.194,0.1944,0.1942,0.1943,0.1926,0.1921,0.1943,0.1943,0.1943,0.1943,0.1943,0.1943,0.1739,0.1752,0.1764,0.178,0.1789,0.1799,0.1812,0.1819,0.1833,0.1849,0.1851,0.1868,0.1879,0.1899,0.1907,0.1919,0.1916,0.1922,0.1923,0.1923,0.1922,0.1892,0.1923,0.1922,0.1922,0.1922,0.1922,0,0.1712,0.1714,0.173,0.1746,0.1758,0.1771,0.1784,0.1792,0.1799,0.1811,0.1828,0.1838,0.1859,0.1875,0.189,0.1898,0.1897,0.1899,0.1902,0.19,0.1894,0.1894,0.1862,0.1898,0.1898,0.1898,0.1898,0.1898,0.1673,0.169,0.1706,0.1716,0.1725,0.1743,0.1754,0.1759,0.177,0.1787,0.1798,0.1816,0.183,0.1857,0.1866,0.1882,0.1882,0.1894,0.1884,0.188,0.1878,0.1877,0.1877,0.1896,0.1896,0.1896,0.1896,0,0.1649,0.1657,0.1685,0.1701,0.1705,0.1722,0.1735,0.175,0.1756,0.1776,0.1781,0.1792,0.181,0.1817,0.184,0.1843,0.1866,0.1867,0.186,0.186,0.1869,0.1867,0.1906,0.191,0.1886,0.1886,0.1887,0,0.1617,0.164,0.165,0.1667,0.1691,0.1698,0.1722,0.1731,0.1743,0.1759,0.1761,0.1776,0.1785,0.18,0.1806,0.1826,0.1832,0.1835,0.1836,0.1834,0.1833,0.184,0.1838,0.1841,0.1841,0.1841,0.1841,0,0.1577,0.1613,0.164,0.1649,0.1671,0.1683,0.1692,0.1708,0.172,0.1737,0.1744,0.1764,0.1774,0.1788,0.1795,0.1787,0.1822,0.1813,0.1824,0.1824,0.1832,0.1831,0.1864,0.1841,0.184,0.184,0.184,0,0.1553,0.1571,0.1612,0.1628,0.1638,0.1657,0.1676,0.1695,0.1712,0.1717,0.1731,0.1734,0.1756,0.1746,0.1775,0.1763,0.1772,0.1778,0.1779,0.1781,0.1769,0.1784,0.1816,0.1818,0.1781,0.1781,0.178,0,0.1501,0.1546,0.1554,0.1593,0.1614,0.1615,0.1636,0.1652,0.1661,0.168,0.1689,0.1712,0.1707,0.1715,0.1729,0.174,0.1755,0.1738,0.1761,0.1761,0.1753,0.1783,0.1785,0.1808,0.1774,0.1775,0.1776,0,0.1464,0.1494,0.1501,0.1511,0.1537,0.1557,0.1582,0.1607,0.1618,0.164,0.1659,0.1693,0.1689,0.1705,0.1711,0.1724,0.1745,0.1719,0.172,0.1721,0.1774,0.1775,0.1779,0.1745,0.1746,0.1747,0.1771,0,0.1416,0.1444,0.1464,0.1493,0.1511,0.1539,0.1551,0.1568,0.1571,0.1581,0.1613,0.1633,0.166,0.1669,0.1675,0.1705,0.1701,0.1699,0.169,0.171,0.1718,0.1722,0.1676,0.1676,0.1676,0.1676,0,0,0.1363,0.1404,0.1415,0.1442,0.1457,0.146,0.1488,0.1504,0.1538,0.1547,0.1542,0.1594,0.1612,0.1649,0.1656,0.1669,0.1674,0.1669,0.1701,0.1704,0.1707,0.1715,0.1719,0.1675,0.1675,0.1675,0.1675,0,0.1349,0.137,0.1399,0.1416,0.1442,0.1453,0.146,0.1487,0.1496,0.153,0.1532,0.1554,0.1599,0.1615,0.1629,0.1664,0.1665,0.1672,0.1684,0.1699,0.1702,0.1705,0.1714,0.1717,0.1675,0.1675,0.1675,0,0.1312,0.1332,0.135,0.139,0.1408,0.1433,0.1426,0.1456,0.1474,0.1479,0.1513,0.1527,0.1552,0.1588,0.1605,0.1601,0.1655,0.1643,0.1645,0.1647,0.1662,0.1666,0.1669,0.1626,0.1626,0.1626,0,0,0.1297,0.1325,0.1351,0.1388,0.1399,0.1418,0.1434,0.1441,0.1465,0.1474,0.1493,0.1515,0.154,0.1557,0.1583,0.1622,0.1626,0.1637,0.1639,0.1641,0.1644,0.166,0.1663,0.1625,0.1625,0.1625,0,0,0.1291,0.1323,0.1324,0.1369,0.1391,0.142,0.1441,0.1443,0.1468,0.1467,0.1481,0.1488,0.1522,0.1537,0.1523,0.158,0.1571,0.1575,0.1569,0.1572,0.1575,0.157,0.152,0,0,0,0,0,0.1285,0.1319,0.1319,0.1329,0.1383,0.142,0.1426,0.1439,0.1431,0.1446,0.1461,0.1463,0.1531,0.1519,0.1528,0.1544,0.1613,0.1615,0.1617,0.1619,0.1622,0.1625,0,0,0,0,0,0,0.1289,0.1301,0.1318,0.1349,0.1361,0.1419,0.1407,0.1411,0.1429,0.1429,0.146,0.1464,0.1476,0.1515,0.1523,0.1538,0.1517,0.1614,0.1616,0.1617,0.162,0.1623,0.1625,0,0,0,0,0,0.1292,0.1302,0.1386,0.1349,0.1359,0.1383,0.1406,0.1409,0.1424,0.145,0.1454,0.1431,0.1476,0.1484,0.152,0.1534,0.1512,0.1515,0.1615,0.1616,0.1618,0.1622,0,0,0,0,0,0,0.1295,0.1305,0.1388,0.1392,0.1338,0.138,0.1388,0.1408,0.1444,0.1448,0.1421,0.1421,0.1476,0.1482,0.1488,0.1532,0.1507,0.151,0.1512,0.1616,0.1617,0.1618,0,0,0,0,0,0,0.13,0.1308,0.139,0.1376,0.1378,0.1377,0.1384,0.1418,0.1444,0.1413,0.1414,0.1421,0.1467,0.1482,0.1486,0.1539,0.1504,0.1507,0.1509,0.151,0.1617,0.1618,0,0,0,0,0,0,0.1304,0.1311,0.1375,0.1377,0.1379,0.142,0.1408,0.1463,0.1432,0.1412,0.1429,0.1428,0.1467,0.1472,0.1485,0.1536,0.1538,0.1504,0.1506,0.1507,0.1508,0,0,0,0,0,0,0,0.1307,0.1256,0.1367,0.1378,0.1379,0.1425,0.1426,0.1427,0.1432,0.1431,0.143,0.1429,0.1487,0.149,0.1494,0.1533,0,0,0.1504,0.1505,0,0,0,0,0,0,0,0,0.1254,0.1256,0.1367,0.1368,0.1368,0.1425,0.1426,0.1427,0.1431,0.1431,0.143,0.1429,0.1488,0.1491,0.1493,0,0,0,0,0,0,0,0,0,0,0,0,0,0,0,0.1367,0.1368,0,0.1425,0.1426,0.1427,0.1431,0.1431,0.143,0.1429,0.1489,0.1491,0.1493,0,0,0,0,0,0,0,0,0,0,0,0,0,0,0,0,0,0,0,0,0,0,0,0,0,0,0,0,0,0,0,0,0,0,0,0,0,0,0,0,0,0,0,0,0,0,0,0,0,0,0,0,0,0,0,0,0,0,0,0,0,0,0,0,0,0,0,0,0]}]]]